Location: Aulnoy
(48.8410°N, 3.0967°E)
Time: 19:22:00
(UTC+00:00)

Cosmos 1606 - Pass Details

Date: 09 February 2023
Orbit: 488 x 509 km, 82.5° (Epoch: 26 March)

Event Time Altitude Azimuth Distance (km) Brightness Sun altitude
Rises 18:14:27 0° 351° (N) 2,655 6.3 -13.0°
Reaches altitude 10° 18:16:36 10° 353° (N) 1,761 5.4 -13.3°
Maximum altitude 18:20:28 75° 79° (E) 541 2.6 -14.0°
Drops below altitude 10° 18:24:17 10° 166° (SSE) 1,739 5.3 -14.6°
Sets 18:26:24 0° 168° (SSE) 2,617 6.2 -14.9°
